Overview Statistics Trail Chart Weather Telemetry Raw packets
 

This is the latest recevied weather packets stored in our database for station/object OK2JV-13. If no packets are shown the sender has not sent any weather packets the latest 10 day(s).

<< 30 31 32 33 34 35 36 >>
Time Temp. Humidity Pressure Rain* Wind** Luminosity Snow
1788009620 21.67° C 47% 1014.9 hPa - - - -
1788009015 22.78° C 43% 1014.8 hPa - - - -
1788008410 23.33° C 42% 1015 hPa - - - -
1788007807 23.33° C 40% 1014.6 hPa - - - -
1788007203 22.78° C 47% 1014.6 hPa - - - -
1788006598 22.22° C 51% 1014.5 hPa - - - -
1788005995 22.22° C 51% 1014.7 hPa - - - -
1788005390 22.22° C 54% 1014.7 hPa - - - -
1788004786 21.67° C 55% 1014.6 hPa - - - -
1788004184 21.11° C 56% 1014.7 hPa - - - -
1788003578 20.56° C 57% 1014.6 hPa - - - -
1788002974 20° C 60% 1014.8 hPa - - - -
1788002370 20° C 60% 1014.8 hPa - - - -
1788001765 19.44° C 61% 1014.8 hPa - - - -
1788000557 19.44° C 60% 1015 hPa - - - -
1787999953 19.44° C 61% 1014.8 hPa - - - -
1787999349 20° C 60% 1014.7 hPa - - - -
1787998745 20° C 61% 1014.7 hPa - - - -
1787998140 20° C 63% 1014.7 hPa - - - -
1787997536 19.44° C 65% 1014.8 hPa - - - -
1787996932 19.44° C 64% 1014.9 hPa - - - -
1787996330 19.44° C 65% 1014.8 hPa - - - -
1787995724 19.44° C 68% 1014.8 hPa - - - -
1787995119 18.89° C 66% 1014.8 hPa - - - -
1787994517 19.44° C 68% 1014.6 hPa - - - -

* Rain since midnight (hover to see other rain measurements)
** Current wind speed in m/s (hover to see current wind gust speed)